| time (UTC) | temp F | wind direction | speed MPH | gust MPH | rain 1hr in | rain 24hr in | rain mn in | humidity % | barometer mb |
| 20260509123830 | 55 | 360 | 13.0 | 4.0 | 0.00 | 0.00 | 0.00 | 71 | 997.0 |
| 20260509123330 | 54 | 360 | 4.0 | 4.0 | 0.00 | 0.00 | 0.00 | 72 | 997.0 |
| 20260509122830 | 54 | 360 | 6.0 | 4.0 | 0.00 | 0.00 | 0.00 | 72 | 997.1 |
| 20260509122330 | 54 | 360 | 6.0 | 4.0 | 0.00 | 0.00 | 0.00 | 71 | 996.9 |
| 20260509121830 | 54 | 360 | 9.0 | 4.0 | 0.00 | 0.00 | 0.00 | 70 | 997.0 |
| 20260509121330 | 54 | 360 | 12.0 | 4.0 | 0.00 | 0.00 | 0.00 | 70 | 996.9 |
| 20260509120830 | 54 | 360 | 14.0 | 4.0 | 0.00 | 0.00 | 0.00 | 70 | 996.9 |
| 20260509120330 | 54 | 360 | 14.0 | 4.0 | 0.00 | 0.00 | 0.00 | 70 | 996.8 |
| 20260509115830 | 54 | 360 | 4.0 | 4.0 | 0.00 | 0.00 | 0.00 | 69 | 996.9 |
| 20260509115330 | 54 | 360 | 4.0 | 4.0 | 0.00 | 0.00 | 0.00 | 69 | 997.1 |
| 20260509114330 | 54 | 360 | 9.0 | 4.0 | 0.00 | 0.00 | 0.00 | 69 | 997.2 |
| 20260509113830 | 53 | 360 | 6.0 | 4.0 | 0.00 | 0.00 | 0.00 | 69 | 997.0 |
| 20260509113330 | 53 | 360 | 5.0 | 4.0 | 0.00 | 0.00 | 0.00 | 69 | 997.0 |
| 20260509111830 | 52 | 360 | 5.0 | 4.0 | 0.00 | 0.00 | 0.00 | 67 | 997.1 |
| 20260509111330 | 52 | 360 | 3.0 | 4.0 | 0.00 | 0.00 | 0.00 | 67 | 997.2 |
| 20260509110830 | 51 | 360 | 8.0 | 4.0 | 0.00 | 0.00 | 0.00 | 67 | 997.0 |
| 20260509110330 | 51 | 360 | 3.0 | 4.0 | 0.00 | 0.00 | 0.00 | 66 | 996.9 |
| 20260509105830 | 51 | 360 | 3.0 | 4.0 | 0.00 | 0.00 | 0.00 | 65 | 996.9 |
| 20260509105330 | 51 | 360 | 3.0 | 4.0 | 0.00 | 0.00 | 0.00 | 64 | 997.0 |
| 20260509104830 | 51 | 360 | 2.0 | 4.0 | 0.00 | 0.00 | 0.00 | 64 | 997.0 |
| 20260509104330 | 51 | 360 | 2.0 | 4.0 | 0.00 | 0.00 | 0.00 | 64 | 997.2 |
| 20260509103830 | 51 | 360 | 3.0 | 4.0 | 0.00 | 0.00 | 0.00 | 62 | 997.6 |
| 20260509103330 | 51 | 360 | 4.0 | 4.0 | 0.00 | 0.00 | 0.00 | 62 | 997.6 |
| 20260509102830 | 51 | 360 | 2.0 | 4.0 | 0.00 | 0.00 | 0.00 | 61 | 997.6 |
| 20260509102330 | 52 | 360 | 2.0 | 4.0 | 0.00 | 0.00 | 0.00 | 60 | 997.7 |
| 20260509101330 | 52 | 360 | 3.0 | 4.0 | 0.00 | 0.00 | 0.00 | 58 | 997.7 |
| 20260509100830 | 52 | 360 | 1.0 | 6.0 | 0.00 | 0.00 | 0.00 | 57 | 997.7 |
| 20260509095822 | 52 | 360 | 3.0 | 0.0 | 0.00 | 0.00 | 0.00 | 56 | 997.9 |
| 20260509095322 | 52 | 360 | 5.0 | 0.0 | 0.00 | 0.00 | 0.00 | 56 | 998.1 |
| 20260509094822 | 52 | 360 | 3.0 | 0.0 | 0.00 | 0.00 | 0.00 | 55 | 998.1 |
| 20260509093822 | 52 | 360 | 3.0 | 0.0 | 0.00 | 0.00 | 0.00 | 55 | 998.4 |
| 20260509093322 | 53 | 360 | 4.0 | 0.0 | 0.00 | 0.00 | 0.00 | 55 | 998.4 |
| 20260509092822 | 53 | 360 | 4.0 | 0.0 | 0.00 | 0.00 | 0.00 | 53 | 998.5 |
| 20260509092322 | 53 | 360 | 2.0 | 0.0 | 0.00 | 0.00 | 0.00 | 52 | 998.5 |
| 20260509091822 | 53 | 360 | 5.0 | 0.0 | 0.00 | 0.00 | 0.00 | 51 | 998.6 |
| 20260509090822 | 54 | 360 | 3.0 | 0.0 | 0.00 | 0.00 | 0.00 | 49 | 998.7 |
| 20260509085821 | 54 | 360 | 12.0 | 0.0 | 0.00 | 0.00 | 0.00 | 47 | 999.0 |
| 20260509084821 | 54 | 360 | 3.0 | 0.0 | 0.00 | 0.00 | 0.00 | 45 | 999.2 |
| 20260509084321 | 54 | 360 | 5.0 | 0.0 | 0.00 | 0.00 | 0.00 | 44 | 999.3 |
| 20260509083822 | 54 | 360 | 6.0 | 0.0 | 0.00 | 0.00 | 0.00 | 43 | 999.3 |
| 20260509083322 | 54 | 360 | 4.0 | 0.0 | 0.00 | 0.00 | 0.00 | 43 | 999.4 |
| 20260509082822 | 54 | 360 | 8.0 | 0.0 | 0.00 | 0.00 | 0.00 | 43 | 999.4 |
| 20260509082322 | 54 | 187 | 3.0 | 0.0 | 0.00 | 0.00 | 0.00 | 43 | 999.4 |
| 20260509081821 | 54 | 360 | 8.0 | 0.0 | 0.00 | 0.00 | 0.00 | 43 | 999.4 |
| 20260509081321 | 54 | 360 | 3.0 | 0.0 | 0.00 | 0.00 | 0.00 | 43 | 999.5 |
| 20260509080322 | 53 | 360 | 4.0 | 0.0 | 0.00 | 0.00 | 0.00 | 44 | 999.6 |
| 20260509075821 | 53 | 360 | 1.0 | 0.0 | 0.00 | 0.00 | 0.00 | 44 | 999.6 |
| 20260509074821 | 52 | 360 | 6.0 | 0.0 | 0.00 | 0.00 | 0.00 | 44 | 999.7 |
| 20260509074321 | 52 | 360 | 2.0 | 0.0 | 0.00 | 0.00 | 0.00 | 46 | 999.8 |
| 20260509073822 | 52 | 360 | 6.0 | 0.0 | 0.00 | 0.00 | 0.00 | 46 | 999.8 |
| 20260509073322 | 51 | 360 | 4.0 | 0.0 | 0.00 | 0.00 | 0.00 | 47 | 999.8 |
| 20260509072321 | 51 | 360 | 4.0 | 0.0 | 0.00 | 0.00 | 0.00 | 51 | 1000.0 |
| 20260509071821 | 51 | 360 | 4.0 | 0.0 | 0.00 | 0.00 | 0.00 | 50 | 1000.1 |
| 20260509070821 | 51 | 360 | 4.0 | 0.0 | 0.00 | 0.00 | 0.00 | 51 | 1000.2 |
| 20260509070321 | 51 | 360 | 6.0 | 0.0 | 0.00 | 0.00 | 0.00 | 51 | 1000.4 |
| 20260509065822 | 51 | 360 | 0.0 | 0.0 | 0.00 | 0.00 | 0.00 | 53 | 1000.4 |
| 20260509065322 | 51 | 360 | 1.0 | 0.0 | 0.00 | 0.00 | 0.00 | 53 | 1000.6 |
| 20260509063822 | 50 | 360 | 4.0 | 0.0 | 0.00 | 0.00 | 0.00 | 54 | 1000.9 |
| 20260509063322 | 50 | 360 | 0.0 | 0.0 | 0.00 | 0.00 | 0.00 | 55 | 1001.0 |
| 20260509062822 | 50 | 360 | 2.0 | 0.0 | 0.00 | 0.00 | 0.00 | 55 | 1001.1 |
| 20260509062321 | 50 | 187 | 0.0 | 0.0 | 0.00 | 0.00 | 0.00 | 56 | 1001.2 |
| 20260509061821 | 49 | 186 | 0.0 | 0.0 | 0.00 | 0.00 | 0.00 | 58 | 1001.3 |
| 20260509061321 | 49 | 360 | 0.0 | 0.0 | 0.00 | 0.00 | 0.00 | 58 | 1001.4 |
| 20260509060822 | 49 | 360 | 0.0 | 0.0 | 0.00 | 0.00 | 0.00 | 58 | 1001.5 |
| 20260509055837 | 49 | 360 | 0.0 | 0.0 | 0.00 | 0.00 | 0.00 | 55 | 1001.8 |
| 20260509055337 | 49 | 360 | 0.0 | 0.0 | 0.00 | 0.00 | 0.00 | 56 | 1001.8 |
| 20260509054837 | 50 | 360 | 0.0 | 0.0 | 0.00 | 0.00 | 0.00 | 55 | 1001.8 |
| 20260509054337 | 50 | 171 | 0.0 | 0.0 | 0.00 | 0.00 | 0.00 | 55 | 1001.8 |
| 20260509053337 | 50 | 360 | 0.0 | 0.0 | 0.00 | 0.00 | 0.00 | 54 | 1001.9 |
| 20260509052837 | 50 | 360 | 0.0 | 0.0 | 0.00 | 0.00 | 0.00 | 54 | 1002.0 |
| 20260509052337 | 50 | 360 | 0.0 | 0.0 | 0.00 | 0.00 | 0.00 | 54 | 1002.1 |
| 20260509051837 | 50 | 360 | 0.0 | 0.0 | 0.00 | 0.00 | 0.00 | 56 | 1002.2 |
| 20260509051336 | 50 | 360 | 0.0 | 0.0 | 0.00 | 0.00 | 0.00 | 55 | 1002.2 |
| 20260509050837 | 50 | 360 | 0.0 | 0.0 | 0.00 | 0.00 | 0.00 | 57 | 1002.3 |
| 20260509050337 | 50 | 360 | 0.0 | 0.0 | 0.00 | 0.00 | 0.00 | 56 | 1002.5 |
| 20260509045836 | 50 | 360 | 0.0 | 0.0 | 0.00 | 0.00 | 0.00 | 56 | 1002.5 |
| 20260509045337 | 51 | 360 | 0.0 | 0.0 | 0.00 | 0.00 | 0.00 | 57 | 1002.5 |
| 20260509044837 | 51 | 360 | 0.0 | 0.0 | 0.00 | 0.00 | 0.00 | 58 | 1002.6 |
| 20260509044336 | 51 | 360 | 0.0 | 0.0 | 0.00 | 0.00 | 0.00 | 59 | 1002.7 |
| 20260509043837 | 51 | 360 | 0.0 | 0.0 | 0.00 | 0.00 | 0.00 | 58 | 1002.8 |
| 20260509042837 | 52 | 360 | 0.0 | 0.0 | 0.00 | 0.00 | 0.00 | 59 | 1003.0 |
| 20260509042337 | 51 | 360 | 3.0 | 0.0 | 0.00 | 0.00 | 0.00 | 56 | 1003.1 |
| 20260509041837 | 50 | 360 | 2.0 | 0.0 | 0.00 | 0.00 | 0.00 | 54 | 1003.1 |
| 20260509041337 | 49 | 360 | 3.0 | 0.0 | 0.00 | 0.00 | 0.00 | 56 | 1003.2 |
| 20260509040837 | 48 | 360 | 0.0 | 0.0 | 0.00 | 0.00 | 0.00 | 61 | 1003.2 |
| 20260509040337 | 48 | 360 | 0.0 | 0.0 | 0.00 | 0.00 | 0.00 | 62 | 1003.2 |
| 20260509035836 | 47 | 360 | 0.0 | 0.0 | 0.00 | 0.00 | 0.00 | 66 | 1003.3 |
| 20260509035337 | 46 | 360 | 0.0 | 0.0 | 0.00 | 0.00 | 0.00 | 68 | 1003.3 |
| 20260509033837 | 44 | 360 | 0.0 | 0.0 | 0.00 | 0.00 | 0.00 | 78 | 1003.4 |
| 20260509033336 | 44 | 360 | 0.0 | 0.0 | 0.00 | 0.00 | 0.00 | 80 | 1003.3 |
| 20260509032836 | 44 | 360 | 0.0 | 0.0 | 0.00 | 0.00 | 0.00 | 80 | 1003.4 |
| 20260509031836 | 44 | 360 | 0.0 | 0.0 | 0.00 | 0.00 | 0.00 | 81 | 1003.5 |
| 20260509031337 | 44 | 360 | 0.0 | 0.0 | 0.00 | 0.00 | 0.00 | 80 | 1003.6 |
| 20260509030837 | 44 | 360 | 0.0 | 0.0 | 0.00 | 0.00 | 0.00 | 80 | 1003.6 |
| 20260509030337 | 44 | 360 | 0.0 | 0.0 | 0.00 | 0.00 | 0.00 | 81 | 1003.6 |
| 20260509025337 | 44 | 360 | 0.0 | 0.0 | 0.00 | 0.00 | 0.00 | 80 | 1003.5 |
| 20260509024837 | 44 | 360 | 0.0 | 0.0 | 0.00 | 0.00 | 0.00 | 80 | 1003.5 |
| 20260509024336 | 44 | 360 | 0.0 | 0.0 | 0.00 | 0.00 | 0.00 | 80 | 1003.7 |
| 20260509023836 | 44 | 360 | 0.0 | 0.0 | 0.00 | 0.00 | 0.00 | 79 | 1003.7 |
| 20260509023337 | 44 | 360 | 0.0 | 0.0 | 0.00 | 0.00 | 0.00 | 78 | 1003.8 |
| 20260509022836 | 44 | 360 | 0.0 | 0.0 | 0.00 | 0.00 | 0.00 | 78 | 1003.8 |
| 20260509022336 | 44 | 360 | 0.0 | 0.0 | 0.00 | 0.00 | 0.00 | 78 | 1003.8 |
| 20260509021837 | 44 | 360 | 0.0 | 0.0 | 0.00 | 0.00 | 0.00 | 77 | 1003.9 |
| 20260509021337 | 45 | 360 | 0.0 | 0.0 | 0.00 | 0.00 | 0.00 | 76 | 1003.9 |
| 20260509015851 | 45 | 360 | 0.0 | 0.0 | 0.00 | 0.00 | 0.00 | 74 | 1004.0 |
| 20260509015321 | 46 | 360 | 0.0 | 0.0 | 0.00 | 0.00 | 0.00 | 73 | 1003.9 |
| 20260509014821 | 46 | 360 | 0.0 | 0.0 | 0.00 | 0.00 | 0.00 | 73 | 1003.8 |
| 20260509014321 | 46 | 360 | 0.0 | 0.0 | 0.00 | 0.00 | 0.00 | 72 | 1003.8 |
| 20260509013821 | 47 | 360 | 0.0 | 0.0 | 0.00 | 0.00 | 0.00 | 70 | 1003.9 |
| 20260509013321 | 47 | 360 | 0.0 | 0.0 | 0.00 | 0.00 | 0.00 | 68 | 1003.9 |
| 20260509012821 | 47 | 360 | 0.0 | 0.0 | 0.00 | 0.00 | 0.00 | 69 | 1003.8 |
| 20260509011821 | 48 | 360 | 0.0 | 0.0 | 0.00 | 0.00 | 0.00 | 67 | 1003.9 |
| 20260509011321 | 49 | 360 | 0.0 | 0.0 | 0.00 | 0.00 | 0.00 | 65 | 1003.9 |
| 20260509010821 | 49 | 360 | 0.0 | 0.0 | 0.00 | 0.00 | 0.00 | 65 | 1004.0 |
| 20260509010320 | 49 | 360 | 0.0 | 0.0 | 0.00 | 0.00 | 0.00 | 64 | 1003.9 |
| 20260509005821 | 49 | 360 | 0.0 | 0.0 | 0.00 | 0.00 | 0.00 | 63 | 1003.9 |
| 20260509005321 | 49 | 360 | 0.0 | 0.0 | 0.00 | 0.00 | 0.00 | 63 | 1003.9 |
| 20260509004320 | 49 | 360 | 0.0 | 0.0 | 0.00 | 0.00 | 0.00 | 63 | 1003.9 |
| 20260509003821 | 49 | 360 | 0.0 | 0.0 | 0.00 | 0.00 | 0.00 | 63 | 1003.9 |
| 20260509003321 | 50 | 360 | 0.0 | 0.0 | 0.00 | 0.00 | 0.00 | 63 | 1003.9 |
| 20260509002821 | 50 | 360 | 0.0 | 0.0 | 0.00 | 0.00 | 0.00 | 64 | 1003.9 |
| 20260509002321 | 50 | 360 | 0.0 | 0.0 | 0.00 | 0.00 | 0.00 | 61 | 1003.9 |
| 20260509001820 | 50 | 360 | 0.0 | 0.0 | 0.00 | 0.00 | 0.00 | 59 | 1004.0 |
| 20260509001321 | 50 | 360 | 0.0 | 0.0 | 0.00 | 0.00 | 0.00 | 59 | 1004.0 |
| 20260509000821 | 50 | 360 | 0.0 | 0.0 | 0.00 | 0.00 | 0.00 | 57 | 1004.1 |
| 20260509000321 | 50 | 360 | 0.0 | 0.0 | 0.00 | 0.00 | 0.00 | 57 | 1004.1 |
| 20260508235821 | 50 | 360 | 0.0 | 0.0 | 0.00 | 0.00 | 0.00 | 59 | 1004.2 |
| 20260508235321 | 50 | 360 | 0.0 | 0.0 | 0.00 | 0.00 | 0.00 | 57 | 1004.0 |
| 20260508234821 | 51 | 360 | 0.0 | 0.0 | 0.00 | 0.00 | 0.00 | 56 | 1004.1 |
| 20260508234320 | 51 | 360 | 0.0 | 0.0 | 0.00 | 0.00 | 0.00 | 57 | 1004.2 |
| 20260508233820 | 51 | 17 | 0.0 | 0.0 | 0.00 | 0.00 | 0.00 | 56 | 1004.3 |
| 20260508232821 | 52 | 9 | 0.0 | 0.0 | 0.00 | 0.00 | 0.00 | 56 | 1004.2 |
| 20260508232321 | 52 | 5 | 0.0 | 0.0 | 0.00 | 0.00 | 0.00 | 55 | 1004.3 |
| 20260508231821 | 53 | 5 | 0.0 | 0.0 | 0.00 | 0.00 | 0.00 | 54 | 1004.3 |
| 20260508230821 | 53 | 5 | 0.0 | 0.0 | 0.00 | 0.00 | 0.00 | 53 | 1004.4 |
| 20260508230321 | 54 | 5 | 0.0 | 0.0 | 0.00 | 0.00 | 0.00 | 54 | 1004.4 |
| 20260508225820 | 54 | 5 | 0.0 | 0.0 | 0.00 | 0.00 | 0.00 | 53 | 1004.3 |
| 20260508224820 | 56 | 5 | 0.0 | 0.0 | 0.00 | 0.00 | 0.00 | 51 | 1004.4 |
| 20260508224321 | 56 | 360 | 0.0 | 0.0 | 0.00 | 0.00 | 0.00 | 49 | 1004.4 |
| 20260508223821 | 57 | 360 | 0.0 | 0.0 | 0.00 | 0.00 | 0.00 | 50 | 1004.4 |
| 20260508223321 | 57 | 360 | 0.0 | 0.0 | 0.00 | 0.00 | 0.00 | 49 | 1004.3 |
| 20260508222821 | 58 | 360 | 0.0 | 0.0 | 0.00 | 0.00 | 0.00 | 46 | 1004.3 |
| 20260508222321 | 58 | 360 | 0.0 | 0.0 | 0.00 | 0.00 | 0.00 | 43 | 1004.4 |
| 20260508221821 | 58 | 360 | 0.0 | 0.0 | 0.00 | 0.00 | 0.00 | 45 | 1004.4 |
| 20260508221321 | 58 | 360 | 0.0 | 0.0 | 0.00 | 0.00 | 0.00 | 44 | 1004.5 |
| 20260508220821 | 58 | 360 | 0.0 | 11.0 | 0.00 | 0.00 | 0.00 | 44 | 1004.7 |
| 20260508215838 | 58 | 360 | 0.0 | 11.0 | 0.00 | 0.00 | 0.00 | 44 | 1004.7 |
| 20260508215338 | 58 | 360 | 0.0 | 11.0 | 0.00 | 0.00 | 0.00 | 42 | 1004.8 |
| 20260508214838 | 59 | 360 | 0.0 | 11.0 | 0.00 | 0.00 | 0.00 | 44 | 1004.8 |
| 20260508214338 | 59 | 360 | 0.0 | 11.0 | 0.00 | 0.00 | 0.00 | 43 | 1004.8 |
| 20260508213838 | 59 | 360 | 0.0 | 11.0 | 0.00 | 0.00 | 0.00 | 44 | 1004.9 |
| 20260508213338 | 59 | 360 | 3.0 | 11.0 | 0.00 | 0.00 | 0.00 | 45 | 1004.9 |
| 20260508212838 | 59 | 355 | 0.0 | 11.0 | 0.00 | 0.00 | 0.00 | 43 | 1005.0 |
| 20260508212338 | 59 | 360 | 0.0 | 11.0 | 0.00 | 0.00 | 0.00 | 44 | 1004.9 |
| 20260508211838 | 59 | 360 | 0.0 | 11.0 | 0.00 | 0.00 | 0.00 | 46 | 1004.9 |
| 20260508211338 | 59 | 360 | 4.0 | 11.0 | 0.00 | 0.00 | 0.00 | 45 | 1005.0 |
| 20260508210838 | 59 | 360 | 0.0 | 11.0 | 0.00 | 0.00 | 0.00 | 45 | 1005.1 |
| 20260508210338 | 59 | 360 | 2.0 | 11.0 | 0.00 | 0.00 | 0.00 | 45 | 1005.2 |
| 20260508205838 | 59 | 360 | 4.0 | 11.0 | 0.00 | 0.00 | 0.00 | 43 | 1005.3 |
| 20260508205338 | 59 | 360 | 1.0 | 11.0 | 0.00 | 0.00 | 0.00 | 43 | 1005.4 |
| 20260508204838 | 59 | 238 | 0.0 | 11.0 | 0.00 | 0.00 | 0.00 | 43 | 1005.5 |
| 20260508204338 | 59 | 360 | 2.0 | 11.0 | 0.00 | 0.00 | 0.00 | 44 | 1005.6 |
| 20260508202838 | 58 | 360 | 4.0 | 11.0 | 0.00 | 0.00 | 0.00 | 45 | 1005.7 |
| 20260508201838 | 58 | 360 | 0.0 | 11.0 | 0.00 | 0.00 | 0.00 | 46 | 1006.0 |
| 20260508200338 | 58 | 360 | 1.0 | 11.0 | 0.00 | 0.00 | 0.00 | 45 | 1006.1 |
| 20260508195838 | 58 | 360 | 1.0 | 11.0 | 0.00 | 0.00 | 0.00 | 46 | 1006.0 |
| 20260508194838 | 58 | 360 | 4.0 | 11.0 | 0.00 | 0.00 | 0.00 | 45 | 1006.3 |
| 20260508194338 | 58 | 360 | 1.0 | 11.0 | 0.00 | 0.00 | 0.00 | 47 | 1006.4 |
| 20260508193838 | 58 | 360 | 5.0 | 11.0 | 0.00 | 0.00 | 0.00 | 46 | 1006.5 |
| 20260508193338 | 58 | 360 | 3.0 | 11.0 | 0.00 | 0.00 | 0.00 | 46 | 1006.5 |
| 20260508192838 | 58 | 5 | 1.0 | 11.0 | 0.00 | 0.00 | 0.00 | 47 | 1006.6 |
| 20260508191838 | 57 | 360 | 0.0 | 11.0 | 0.00 | 0.00 | 0.00 | 49 | 1006.7 |
| 20260508191338 | 57 | 360 | 1.0 | 11.0 | 0.00 | 0.00 | 0.00 | 47 | 1006.7 |
| 20260508190838 | 57 | 360 | 9.0 | 11.0 | 0.00 | 0.00 | 0.00 | 49 | 1006.7 |
| 20260508190338 | 58 | 360 | 2.0 | 11.0 | 0.00 | 0.00 | 0.00 | 46 | 1006.9 |
| 20260508185838 | 57 | 360 | 3.0 | 11.0 | 0.00 | 0.00 | 0.00 | 45 | 1006.9 |
| 20260508185338 | 57 | 360 | 4.0 | 11.0 | 0.00 | 0.00 | 0.00 | 48 | 1006.9 |
| 20260508184838 | 57 | 360 | 4.0 | 11.0 | 0.00 | 0.00 | 0.00 | 46 | 1006.9 |
| 20260508184338 | 58 | 355 | 1.0 | 11.0 | 0.00 | 0.00 | 0.00 | 44 | 1006.9 |
| 20260508183838 | 58 | 360 | 4.0 | 11.0 | 0.00 | 0.00 | 0.00 | 45 | 1007.0 |
| 20260508183338 | 58 | 360 | 3.0 | 11.0 | 0.00 | 0.00 | 0.00 | 46 | 1007.0 |
| 20260508182838 | 58 | 360 | 2.0 | 11.0 | 0.00 | 0.00 | 0.00 | 47 | 1007.0 |
| 20260508182338 | 57 | 360 | 1.0 | 11.0 | 0.00 | 0.00 | 0.00 | 49 | 1007.0 |
| 20260508181338 | 57 | 360 | 5.0 | 11.0 | 0.00 | 0.00 | 0.00 | 46 | 1006.9 |
| 20260508180838 | 57 | 360 | 11.0 | 12.0 | 0.00 | 0.00 | 0.00 | 45 | 1007.0 |
| 20260508175823 | 57 | 360 | 8.0 | 12.0 | 0.00 | 0.00 | 0.00 | 49 | 1007.0 |
| 20260508175323 | 57 | 360 | 2.0 | 12.0 | 0.00 | 0.00 | 0.00 | 47 | 1007.0 |
| 20260508174823 | 57 | 360 | 3.0 | 12.0 | 0.00 | 0.00 | 0.00 | 48 | 1007.0 |
| 20260508174323 | 57 | 360 | 2.0 | 12.0 | 0.00 | 0.00 | 0.00 | 48 | 1007.1 |
| 20260508173823 | 57 | 360 | 8.0 | 12.0 | 0.00 | 0.00 | 0.00 | 49 | 1007.1 |
| 20260508172821 | 56 | 360 | 5.0 | 8.0 | 0.00 | 0.00 | 0.00 | 49 | 1007.3 |
| 20260508171821 | 56 | 360 | 9.0 | 8.0 | 0.00 | 0.00 | 0.00 | 49 | 1007.4 |
| 20260508171321 | 56 | 360 | 0.0 | 8.0 | 0.00 | 0.00 | 0.00 | 51 | 1007.4 |
| 20260508170821 | 56 | 360 | 6.0 | 8.0 | 0.00 | 0.00 | 0.00 | 48 | 1007.6 |
| 20260508170322 | 55 | 360 | 3.0 | 8.0 | 0.00 | 0.00 | 0.00 | 52 | 1007.5 |
| 20260508165822 | 55 | 360 | 9.0 | 8.0 | 0.00 | 0.00 | 0.00 | 50 | 1007.6 |
| 20260508165322 | 55 | 360 | 4.0 | 8.0 | 0.00 | 0.00 | 0.00 | 48 | 1007.6 |
| 20260508164821 | 55 | 360 | 2.0 | 8.0 | 0.00 | 0.00 | 0.00 | 49 | 1007.7 |
| 20260508164322 | 55 | 360 | 4.0 | 8.0 | 0.00 | 0.00 | 0.00 | 49 | 1007.7 |
| 20260508163822 | 55 | 360 | 9.0 | 8.0 | 0.00 | 0.00 | 0.00 | 48 | 1007.8 |
| 20260508163322 | 55 | 360 | 3.0 | 8.0 | 0.00 | 0.00 | 0.00 | 50 | 1007.8 |
| 20260508162821 | 55 | 360 | 0.0 | 8.0 | 0.00 | 0.00 | 0.00 | 50 | 1007.8 |
| 20260508161822 | 54 | 360 | 3.0 | 8.0 | 0.00 | 0.00 | 0.00 | 52 | 1007.9 |
| 20260508160822 | 53 | 360 | 3.0 | 8.0 | 0.00 | 0.00 | 0.00 | 54 | 1008.0 |
| 20260508160322 | 54 | 360 | 6.0 | 8.0 | 0.00 | 0.00 | 0.00 | 52 | 1008.0 |
| 20260508155821 | 54 | 360 | 6.0 | 8.0 | 0.00 | 0.00 | 0.00 | 52 | 1008.2 |
| 20260508154822 | 53 | 360 | 10.0 | 8.0 | 0.00 | 0.00 | 0.00 | 53 | 1008.2 |
| 20260508154322 | 53 | 360 | 2.0 | 8.0 | 0.00 | 0.00 | 0.00 | 54 | 1008.3 |
| 20260508153822 | 53 | 360 | 5.0 | 8.0 | 0.00 | 0.00 | 0.00 | 54 | 1008.4 |
| 20260508153322 | 52 | 360 | 4.0 | 8.0 | 0.00 | 0.00 | 0.00 | 54 | 1008.4 |
| 20260508152822 | 52 | 360 | 13.0 | 8.0 | 0.00 | 0.00 | 0.00 | 53 | 1008.4 |
| 20260508152322 | 52 | 360 | 2.0 | 8.0 | 0.00 | 0.00 | 0.00 | 54 | 1008.5 |
| 20260508151822 | 52 | 360 | 4.0 | 8.0 | 0.00 | 0.00 | 0.00 | 55 | 1008.5 |
| 20260508151322 | 52 | 360 | 3.0 | 8.0 | 0.00 | 0.00 | 0.00 | 55 | 1008.5 |
| 20260508150822 | 52 | 360 | 3.0 | 8.0 | 0.00 | 0.00 | 0.00 | 56 | 1008.5 |
| 20260508145822 | 51 | 360 | 15.0 | 8.0 | 0.00 | 0.00 | 0.00 | 57 | 1008.5 |
| 20260508145322 | 51 | 360 | 2.0 | 8.0 | 0.00 | 0.00 | 0.00 | 57 | 1008.6 |
| 20260508144822 | 51 | 360 | 5.0 | 8.0 | 0.00 | 0.00 | 0.00 | 57 | 1008.6 |
| 20260508144322 | 51 | 360 | 8.0 | 8.0 | 0.00 | 0.00 | 0.00 | 58 | 1008.6 |
| 20260508143822 | 51 | 360 | 15.0 | 8.0 | 0.00 | 0.00 | 0.00 | 61 | 1008.6 |
| 20260508143322 | 51 | 360 | 4.0 | 8.0 | 0.00 | 0.00 | 0.00 | 61 | 1008.6 |
| 20260508142822 | 50 | 360 | 5.0 | 8.0 | 0.00 | 0.00 | 0.00 | 61 | 1008.5 |
| 20260508141822 | 50 | 360 | 5.0 | 8.0 | 0.00 | 0.00 | 0.00 | 62 | 1008.7 |
| 20260508141321 | 50 | 360 | 13.0 | 8.0 | 0.00 | 0.00 | 0.00 | 63 | 1008.7 |
| 20260508140822 | 49 | 360 | 3.0 | 18.0 | 0.00 | 0.00 | 0.00 | 65 | 1008.7 |
| 20260508135824 | 48 | 360 | 13.0 | 0.0 | 0.00 | 0.00 | 0.00 | 66 | 1008.6 |
| 20260508135324 | 48 | 360 | 3.0 | 0.0 | 0.00 | 0.00 | 0.00 | 65 | 1008.8 |
| 20260508134824 | 48 | 360 | 8.0 | 0.0 | 0.00 | 0.00 | 0.00 | 66 | 1008.8 |
| 20260508134324 | 48 | 360 | 12.0 | 0.0 | 0.00 | 0.00 | 0.00 | 65 | 1008.7 |
| 20260508133824 | 48 | 360 | 10.0 | 0.0 | 0.00 | 0.00 | 0.00 | 65 | 1008.8 |
| 20260508133324 | 48 | 360 | 4.0 | 0.0 | 0.00 | 0.00 | 0.00 | 67 | 1008.8 |
| 20260508132824 | 48 | 360 | 2.0 | 0.0 | 0.00 | 0.00 | 0.00 | 66 | 1008.9 |
| 20260508132324 | 47 | 360 | 5.0 | 0.0 | 0.00 | 0.00 | 0.00 | 69 | 1009.0 |
| 20260508130824 | 45 | 360 | 3.0 | 0.0 | 0.00 | 0.00 | 0.00 | 72 | 1008.9 |
| 20260508130324 | 45 | 360 | 4.0 | 0.0 | 0.00 | 0.00 | 0.00 | 72 | 1008.9 |
| 20260508125825 | 44 | 360 | 2.0 | 0.0 | 0.00 | 0.00 | 0.00 | 76 | 1008.8 |
| 20260508125325 | 44 | 360 | 5.0 | 0.0 | 0.00 | 0.00 | 0.00 | 76 | 1009.0 |
| 20260508124824 | 43 | 360 | 4.0 | 0.0 | 0.00 | 0.00 | 0.00 | 80 | 1009.0 |
| 20260508124324 | 42 | 360 | 0.0 | 0.0 | 0.00 | 0.00 | 0.00 | 83 | 1008.9 |